[[{"header":{"parameterUnit":"m.s-1","parameterCategory":1,"la1":30.2991,"la2":30.254,"lo1":-89.0895,"lo2":-89.0444,"dy":0.0017,"dx":0.0017,"nx":28,"ny":28,"refTime":"2023-08-04T21:00:00:Z","depth":0,"parameterNumber":2,"parameterNumberName":"U-component_of_WINDS"},"data":[0,0,0,0,0,0,0,0,0,0,0,0,0,0,0,0,0,0,0,0,0,0,0,0,0,0,0,0,0,0,0,0,0,0,0,0,0,0,0,0,0,0,0,0,0,0,0,0,0,0,0,0,0,0,0,0,0,0,1.9355,1.9356,0,1.9511,1.9512,1.9514,1.9553,1.9552,1.9551,1.955,1.971,1.9715,1.972,0,0,0,0,0,0,0,0,0,0,0,0,0,1.9089,1.9094,1.9354,1.9356,1.9358,1.951,1.9513,1.9515,1.9553,1.9552,1.9551,1.955,1.9708,1.9714,1.972,0,0,0,0,0,0,0,0,0,0,0,0,0,1.922,1.9095,1.9354,1.9396,1.9401,1.951,1.9513,1.9515,1.9553,1.9552,1.955,1.9549,1.9706,1.9713,1.9721,1.9799,0,0,1.9745,1.9748,0,0,0,0,0,0,0,0,1.9213,1.923,1.9388,1.9393,1.9399,1.9511,1.9477,1.961,1.9554,1.9496,1.955,1.9548,1.9645,1.9657,1.969,1.9807,1.9813,1.9745,1.975,1.9753,1.9756,0,0,0,0,0,0,0,1.9204,1.9224,1.9416,1.939,1.9397,1.9407,1.9424,1.9503,1.9577,1.9501,1.9504,1.9522,1.9647,1.9682,1.9694,1.9816,1.9745,1.9752,1.9757,1.976,2.0004,2.0005,0,0,0,0,0,0,1.9188,1.9216,1.9411,1.9421,1.9301,1.9413,1.9432,1.9477,1.9576,1.959,1.9523,1.9523,1.967,1.9685,1.97,1.9797,1.9753,1.9761,1.9765,2.0002,2.0004,2.0006,0,0,0,0,0,0,1.9182,1.9205,1.9405,1.9319,1.9346,1.9419,1.9469,1.948,1.9515,1.9593,1.9606,1.9545,1.9669,1.9689,1.9774,1.9803,1.9764,1.9771,2.0,2.0002,2.0005,1.9992,0,0,0,0,0,0,1.9174,1.9202,1.9233,1.932,1.935,1.9477,1.9471,1.9485,1.9529,1.953,1.9617,1.963,1.967,1.9762,1.9782,1.9813,1.9777,1.9997,2.0001,2.0004,1.999,1.9994,1.9997,0,0,0,0,0,1.9164,1.9223,1.9234,1.9257,1.939,1.9478,1.9496,1.954,1.9531,1.9562,1.9612,1.9627,1.9797,1.9771,1.9793,1.9827,1.9996,2.0,2.0004,1.9988,1.9993,1.9997,0,0,0,0,0,0,1.9137,1.9235,1.9249,1.9337,1.9399,1.9485,1.9525,1.9544,1.9609,1.9608,1.9661,1.968,1.9761,1.9803,1.9772,1.9907,1.9896,1.9905,1.9877,1.9882,1.9885,1.9873,1.9784,0,0,0,0,0,1.9141,1.9205,1.9288,1.9358,1.9388,1.9451,1.9492,1.9521,1.9587,1.9613,1.9669,1.9733,1.98,1.9844,1.991,1.9997,2.0016,2.0031,2.0035,2.0037,2.0044,2.0092,2.0099,2.0019,2.0019,2.0019,0,0,1.9151,1.9212,1.9249,1.9354,1.9405,1.947,1.9473,1.9541,1.959,1.9624,1.9707,1.975,1.9825,1.9911,1.9951,1.9948,2.007,2.0042,2.0044,2.0049,2.0097,2.0104,2.0111,2.0022,2.0022,2.0021,0,0,1.9201,1.9254,1.9318,1.937,1.9448,1.9489,1.9505,1.9588,1.9618,1.9703,1.9729,1.9787,1.9903,1.9955,1.9996,2.0066,2.0082,2.0086,2.0104,2.015,2.0157,2.0162,2.0186,2.0194,2.0093,2.0093,2.0093,0,1.9202,1.9301,1.9349,1.9416,1.946,1.9495,1.9559,1.9607,1.9703,1.9732,1.9727,1.9873,1.9926,2.0024,2.004,2.0073,2.0092,2.0076,2.0152,2.0158,2.0164,2.0188,2.0197,2.0093,2.0093,2.0093,2.0093,0,1.9299,1.9367,1.9409,1.9501,1.9551,1.9616,1.9673,1.9718,1.9743,1.9785,1.987,1.9935,2.0014,2.004,2.0065,2.0142,2.0137,2.0142,2.0131,2.0171,2.0194,2.0203,2.0093,2.0093,2.0093,2.0093,0,0,1.9335,1.9452,1.9467,1.9508,1.9597,1.965,1.9718,1.9796,1.9833,1.9898,1.9955,2.0052,2.0056,2.0103,2.0135,2.0175,2.0225,2.0175,2.0177,2.0181,2.0312,2.0307,2.0317,2.0237,2.0239,2.0241,2.0306,0,1.9395,1.9516,1.956,1.966,1.9723,1.9756,1.9815,1.9875,1.9916,1.9976,2.0021,2.0089,2.009,2.0119,2.0161,2.021,2.0252,2.0206,2.029,2.0292,2.0269,2.0329,2.0325,2.0383,2.0315,2.0317,2.0318,0,1.948,1.9546,1.9652,1.9732,1.9761,1.9812,1.9887,1.9944,2.0013,2.004,2.0093,2.0122,2.0193,2.0179,2.0277,2.0245,2.0282,2.0312,2.0315,2.0323,2.0306,2.0338,2.0403,2.0411,2.0332,2.0331,2.033,0,1.9494,1.961,1.9687,1.9722,1.9819,1.9854,1.9896,1.9964,2.0008,2.0074,2.0103,2.0176,2.0216,2.0272,2.0319,2.0305,2.0413,2.0403,2.0437,2.0435,2.0457,2.0454,2.0527,2.0483,2.0483,2.0482,2.0482,0,1.9555,1.9618,1.9695,1.9742,1.9814,1.9865,1.9934,1.9978,2.0038,2.0094,2.0129,2.0181,2.0241,2.0301,2.0339,2.0414,2.0432,2.0455,2.0464,2.0452,2.0448,2.0476,2.0472,2.0485,2.0484,2.0484,2.0483,0,1.9582,1.9636,1.9723,1.9808,1.983,1.9879,1.9951,1.9998,2.0042,2.0113,2.0132,2.02,2.0272,2.0325,2.0419,2.0445,2.0524,2.0534,2.0501,2.0505,2.0535,2.0531,2.0626,2.0641,2.0588,2.0588,2.0589,0,1.9617,1.9666,1.9756,1.9796,1.9838,1.9903,1.9948,2.0,2.0046,2.0129,2.0166,2.0241,2.0303,2.0417,2.0474,2.0546,2.0557,2.0586,2.0568,2.0554,2.0556,2.0552,2.0557,2.0588,2.0588,2.0588,2.0588,0,1.9672,1.9696,1.9761,1.9834,1.9887,1.9948,2.0009,2.004,2.0103,2.0153,2.0227,2.0276,2.0371,2.0445,2.0522,2.0565,2.0587,2.0594,2.0605,2.0592,2.057,2.0581,2.0506,2.0591,2.0591,2.059,2.059,2.059,1.9703,1.9748,1.9818,1.9889,1.994,1.9996,2.0045,2.0094,2.0157,2.0239,2.0267,2.0343,2.0412,2.0518,2.0562,2.0622,2.0622,2.0638,2.0642,2.0645,2.0644,2.0561,2.0637,2.0637,2.0637,2.0637,2.0637,0,1.9759,1.9806,1.987,1.9955,2.001,2.0027,2.0095,2.014,2.0207,2.0269,2.033,2.0415,2.0487,2.055,2.0624,2.0661,2.0672,2.0678,2.0675,2.0685,2.0641,2.0623,2.0667,2.0667,2.0667,2.0667,2.0667,2.0667,1.9794,1.9871,1.9904,2.0007,2.0054,2.0129,2.0167,2.0218,2.0268,2.0362,2.0422,2.0463,2.0525,2.0604,2.067,2.0687,2.0712,2.0715,2.0734,2.0692,2.0688,2.0684,2.0668,2.0721,2.0721,2.0773,2.0774,2.0774]},{"header":{"parameterUnit":"m.s-1","parameterCategory":1,"la1":30.2991,"la2":30.254,"lo1":-89.0895,"lo2":-89.0444,"dy":0.0017,"dx":0.0017,"nx":28,"ny":28,"refTime":"2023-08-04T21:00:00:Z","depth":0,"parameterNumber":3,"parameterNumberName":"V-component_of_WINDS"},"data":[0,0,0,0,0,0,0,0,0,0,0,0,0,0,0,0,0,0,0,0,0,0,0,0,0,0,0,0,0,0,0,0,0,0,0,0,0,0,0,0,0,0,0,0,0,0,0,0,0,0,0,0,0,0,0,0,0,0,4.9721,4.9721,0,4.9698,4.9698,4.9697,4.964,4.9639,4.9637,4.9636,4.9614,4.9615,4.9615,0,0,0,0,0,0,0,0,0,0,0,0,0,4.9718,4.9718,4.9721,4.9721,4.9721,4.9698,4.9698,4.9697,4.964,4.9639,4.9637,4.9636,4.9614,4.9615,4.9615,0,0,0,0,0,0,0,0,0,0,0,0,0,4.971,4.9719,4.9721,4.9689,4.9686,4.9698,4.9698,4.9697,4.964,4.9639,4.9637,4.9635,4.9614,4.9615,4.9615,4.9657,0,0,4.9618,4.9618,0,0,0,0,0,0,0,0,4.971,4.971,4.9694,4.9691,4.9688,4.967,4.9688,4.9684,4.9641,4.9658,4.9636,4.9634,4.9634,4.9633,4.9633,4.9656,4.9655,4.9618,4.9618,4.9619,4.9619,0,0,0,0,0,0,0,4.9711,4.9711,4.9712,4.9694,4.969,4.9677,4.9674,4.9687,4.9657,4.9656,4.9652,4.965,4.9632,4.9632,4.9632,4.9655,4.9618,4.9619,4.9619,4.962,4.971,4.9712,0,0,0,0,0,0,4.9716,4.9711,4.9713,4.9711,4.9695,4.9678,4.9675,4.9678,4.9656,4.9651,4.9652,4.9647,4.9632,4.9631,4.9631,4.9678,4.9619,4.962,4.962,4.9709,4.9711,4.9713,0,0,0,0,0,0,4.9716,4.9716,4.9714,4.971,4.9709,4.968,4.9684,4.9678,4.9678,4.9653,4.9647,4.9657,4.963,4.963,4.9651,4.9676,4.962,4.9621,4.9706,4.9709,4.9712,4.9772,0,0,0,0,0,0,4.9716,4.9717,4.9732,4.9711,4.9709,4.9733,4.9686,4.9679,4.9679,4.9674,4.9656,4.9652,4.9629,4.965,4.9652,4.9676,4.9621,4.9704,4.9708,4.9711,4.9768,4.9777,4.9785,0,0,0,0,0,4.9716,4.975,4.9733,4.9733,4.9727,4.9735,4.9734,4.9706,4.9682,4.9697,4.9681,4.9652,4.9674,4.9653,4.9654,4.968,4.9702,4.9706,4.9711,4.9764,4.9775,4.9784,0,0,0,0,0,0,4.9775,4.9747,4.9727,4.9755,4.9748,4.9725,4.9743,4.9719,4.9719,4.9713,4.968,4.9677,4.9702,4.9693,4.967,4.9719,4.9683,4.9688,4.9723,4.9734,4.9742,4.9743,4.9622,0,0,0,0,0,4.9791,4.9799,4.9774,4.9801,4.9799,4.9772,4.9774,4.9754,4.9745,4.9742,4.9727,4.972,4.9725,4.9729,4.9732,4.9767,4.9762,4.9785,4.9793,4.98,4.9805,4.9823,4.9832,4.9727,4.9727,4.9727,0,0,4.9825,4.981,4.9817,4.9813,4.9805,4.9814,4.977,4.9782,4.9788,4.9743,4.9762,4.9751,4.9741,4.9769,4.9781,4.9762,4.9833,4.9806,4.9812,4.9812,4.9828,4.9838,4.9847,4.973,4.973,4.9729,0,0,4.9891,4.9881,4.9902,4.9895,4.9883,4.9865,4.987,4.9851,4.9842,4.986,4.9827,4.9835,4.9844,4.9839,4.9837,4.9902,4.9876,4.9904,4.9947,4.9965,4.9973,4.9981,5.0004,5.0012,4.9909,4.9909,4.9909,0,4.9934,4.9946,4.9916,4.993,4.9929,4.9889,4.9911,4.9906,4.9896,4.9896,4.9876,4.9887,4.9877,4.9903,4.9919,4.992,4.9925,4.9905,4.9975,4.9981,4.9988,5.0009,5.0018,4.9912,4.9912,4.9911,4.9911,0,5.0,5.001,5.0028,5.0019,5.0021,5.0039,5.0012,5.0017,4.9997,4.9981,5.0001,4.9988,4.9988,4.9993,4.9973,5.0016,5.0005,4.9981,4.9944,5.0002,5.0021,5.0029,4.9917,4.9916,4.9915,4.9914,0,0,5.0101,5.0076,5.0083,5.0079,5.0063,5.007,5.0087,5.0086,5.0091,5.0086,5.0099,5.0109,5.0086,5.0084,5.0064,5.0079,5.0131,5.0052,5.0051,5.0067,5.0178,5.0197,5.0207,5.0114,5.0116,5.0117,5.0179,0,5.0163,5.0189,5.0163,5.0194,5.0203,5.0165,5.0179,5.0172,5.0158,5.0164,5.0149,5.0156,5.0125,5.0123,5.0137,5.0122,5.0153,5.0117,5.0127,5.0127,5.013,5.0217,5.0236,5.0295,5.0186,5.0188,5.0188,0,5.0238,5.0236,5.0268,5.0251,5.0253,5.0267,5.0264,5.027,5.0261,5.025,5.0249,5.0224,5.024,5.0205,5.0226,5.0203,5.0205,5.0199,5.02,5.02,5.0161,5.0218,5.0313,5.0322,5.02,5.0199,5.0199,0,5.0308,5.0314,5.0333,5.0331,5.0311,5.0322,5.0314,5.0303,5.0305,5.0303,5.0304,5.0305,5.0305,5.0306,5.0283,5.026,5.0307,5.0271,5.0299,5.03,5.031,5.031,5.0406,5.0313,5.0313,5.0312,5.0312,0,5.0379,5.04,5.0365,5.0377,5.04,5.037,5.0394,5.0382,5.0373,5.0383,5.0351,5.0361,5.033,5.0337,5.0319,5.034,5.034,5.0332,5.0327,5.0334,5.0336,5.0335,5.033,5.0315,5.0314,5.0314,5.0313,0,5.0461,5.0438,5.0457,5.0437,5.0433,5.045,5.0433,5.0444,5.0429,5.0442,5.0443,5.0419,5.0426,5.0403,5.0406,5.0394,5.0424,5.0412,5.0427,5.0423,5.0452,5.045,5.0552,5.0564,5.0463,5.0464,5.0465,0,5.0507,5.0523,5.0504,5.0508,5.0502,5.0509,5.0511,5.0483,5.0485,5.0477,5.0489,5.0493,5.0495,5.0507,5.049,5.0493,5.0481,5.0516,5.0481,5.0488,5.0481,5.048,5.0482,5.0524,5.0525,5.0526,5.0527,0,5.0592,5.058,5.0583,5.0582,5.0585,5.0583,5.0579,5.0585,5.0554,5.056,5.0566,5.0567,5.057,5.0575,5.0574,5.0566,5.0542,5.0538,5.0545,5.0552,5.056,5.0556,5.0446,5.0536,5.0535,5.0534,5.0534,5.0533,5.0657,5.0669,5.0658,5.0663,5.0657,5.0654,5.0663,5.0649,5.0654,5.0653,5.0637,5.0647,5.0638,5.0634,5.0629,5.0637,5.0621,5.063,5.0633,5.0635,5.064,5.0559,5.0637,5.0637,5.0636,5.0636,5.0636,0,5.074,5.0732,5.0736,5.0731,5.0735,5.0712,5.0706,5.0711,5.072,5.0714,5.0716,5.0724,5.0728,5.0712,5.0714,5.0723,5.0712,5.0725,5.0724,5.0723,5.0655,5.0649,5.0734,5.0734,5.0734,5.0734,5.0734,5.0734,5.0784,5.0803,5.079,5.0806,5.0797,5.0806,5.0805,5.0802,5.0797,5.0807,5.081,5.08,5.079,5.0791,5.0794,5.0789,5.0792,5.0808,5.08,5.0737,5.0727,5.0718,5.0712,5.0809,5.0809,5.0867,5.0867,5.0868]}]]